DELTA 1 DEB, 3126

Orbit data source: Space-Track

DELTA 1 DEB, 3126 is space debris in LEO originally from a launch on Thu, 11 Jan 1968 UTC launched from the Air Force Western Test Range (AFWTR). Debris objects in space refer to the collection of defunct objects orbiting the Earth. Examples of debris include non-operational satellites, rocket bodies, and fragments generated from explosions, collisions, or faulty payload assembly.

Loading next visibility...
Identifier
3126, 1968-002C
Orbit
LEO
Country
Flag of USUS
Related business
Manufacturer
Unknown
Mission
Spacecraft
Bus & Motor
Unknown
Mass
Unknown
Launch date (UTC)
1968-01-11 (58 years ago)
Launch vehicle
Unknown
Launch site
Air Force Western Test Range (AFWTR)
Object type
Payload
Rocket body
Debris
Shape & HBR
Unknown shape, 0.1 m
Radar Cross Section
Small (<0.1 m²)

Expand to show TLE details & history
Last TLE update: 18 hours ago

TLE from 18 hours ago
0 DELTA 1 DEB
1  3126U 68002C   25302.37505007 -.00000058  00000-0  62432-4 0  9992
2  3126 106.0711 149.7255 0321518 167.4538   8.7046 12.82453388704692
Epoch: 2025-10-29T09:00Z
TLE epoch observation values (Epoch: 2025-10-29T09:00:04.326Z)
Latitude
3.04631°
Longitude
157.63232°
Altitude
1,088.825 km
Speed
7.423 km/s
True Right ascension
22h 02m 23s
True Declination
3° 01' 44"
Sunlit
Object was in daylight at epoch
Visualization orbit readout
Latitude
Unknown
Longitude
Unknown
Altitude
Unknown
Speed
Unknown
Apparent Right ascension
Unknown
Apparent Declination
Unknown
Sunlit
N/A
Visualization observer readout
Local Sidereal Time
22:42:43
Azimuth
Unknown
Elevation
Unknown
Doppler factor
Unknown
Orbital elements
Apogee altitude
1,577.236 km
Perigee altitude
1,081.612 km
Semi-major axis
7,707.561 km
Eccentricity
0.03215
Inclination
106.0711°
RAAN
149.7255°
Arg. of periapsis
167.4538°
True anomaly
9.2852°
Mean anomaly
8.7046°
Eccentric anomaly
8.99254°
Mean motion
3.20751 °/min
Orbital period
112.24 mins
BSTAR
0.000062432
Loading maneuver chart data...
Computing Atmospheric mass density...
Loading historical data...
Loading historical data...
Loading historical data...
Loading historical data...
Loading historical data...
Loading historical data...
Loading historical data...

Documentation

Showing up to 5 results
|